Stations météo

Publicité
Strasbourg, France (7190): Température de l'air & dewpoint: 11.11.2018 20:00:00 - 17.11.2018 20:00:00 (CET)Strasbourg, France (7190): Température de l'air 5cm: 11.11.2018 20:00:00 - 17.11.2018 20:00:00 (CET)Strasbourg, France (7190): Température de l'air -20cm & Température de l'air -100cm: 11.11.2018 20:00:00 - 17.11.2018 20:00:00 (CET)Strasbourg, France (7190): Vitesse du vent & gusts: 11.11.2018 20:00:00 - 17.11.2018 20:00:00 (CET)Strasbourg, France (7190): Direction du vent: 11.11.2018 20:00:00 - 17.11.2018 20:00:00 (CET)Strasbourg, France (7190): reduced air pressure: 11.11.2018 20:00:00 - 17.11.2018 20:00:00 (CET)Strasbourg, France (7190): visibility: 11.11.2018 20:00:00 - 17.11.2018 20:00:00 (CET)Strasbourg, France (7190): Ensoleillement: 11.11.2018 20:00:00 - 17.11.2018 20:00:00 (CET)Strasbourg, France (7190): Quantités de précipitations: 11.11.2018 20:00:00 - 17.11.2018 20:00:00 (CET)
Date & Time tt [°C] td [°C] tt 5cm [°C] tt -20cm [°C] tt -100cm [°C] ff [km/h] ff [knt] fx [km/h] fx [knt] dd ppp [hPa] vv [km] sd [min] rr [mm]
17.11.2018 20:00:00 - - - - - - - - - - - - - -
17.11.2018 19:00:00 5,7 -0,2 2,3 7,4 12,6 13 7 22 12 NNE 1025,9 27 0 0,0
17.11.2018 18:00:00 5,3 0,5 3,4 7,4 12,6 9 5 25 14 NNW 1025,7 26 0 0,0
17.11.2018 17:00:00 8,0 0,7 6,1 7,2 12,6 19 11 32 17 NNE 1025,4 38 21 0,0
17.11.2018 16:00:00 9,3 1,0 11,1 7,0 12,6 18 10 30 16 NNE 1025,0 33 60 0,0
17.11.2018 15:00:00 9,5 1,6 12,5 6,7 12,6 23 13 34 18 NNE 1025,1 11 60 0,0
17.11.2018 14:00:00 9,1 1,7 11,9 6,5 12,6 19 10 29 15 NE 1025,5 15 60 0,0
17.11.2018 13:00:00 7,8 1,8 10,3 6,3 12,6 20 11 29 16 NE 1025,9 8 60 0,0
17.11.2018 12:00:00 6,9 1,6 8,2 6,2 12,7 16 8 27 14 NE 1026,5 7 60 0,0
17.11.2018 11:00:00 5,3 1,0 7,9 6,3 12,7 17 9 25 13 NE 1027,3 9 60 0,0
17.11.2018 10:00:00 4,1 1,1 4,0 6,4 12,7 14 7 26 14 NNE 1027,2 8 60 0,0
17.11.2018 09:00:00 1,9 0,4 -0,7 6,6 12,7 10 5 17 9 N 1027,6 6 53 0,0
17.11.2018 08:00:00 0,3 -0,7 -1,9 6,8 12,7 11 6 19 10 N 1027,5 6 0 0,0
17.11.2018 07:00:00 0,2 -0,7 -1,9 6,9 12,7 10 6 14 8 N 1026,9 6 0 0,0
17.11.2018 06:00:00 0,4 -0,3 -2,2 7,1 12,7 10 5 18 10 N 1026,8 7 0 0,0
17.11.2018 05:00:00 0,0 -1,3 -1,6 7,3 12,7 8 4 18 10 NW 1027,0 6 0 0,0
17.11.2018 04:00:00 1,0 -0,3 -0,8 7,5 12,7 10 6 14 8 N 1027,2 8 0 0,0
17.11.2018 03:00:00 1,2 0,0 -0,6 7,7 12,7 6 3 11 6 NW 1027,4 9 0 0,0
17.11.2018 02:00:00 1,0 -0,2 -0,5 7,8 12,7 8 5 18 10 NNW 1027,2 8 0 0,0
17.11.2018 01:00:00 2,3 1,0 0,4 8,1 12,8 14 7 19 10 N 1027,0 8 0 0,0
17.11.2018 00:00:00 1,4 0,2 -1,1 8,3 12,8 9 5 13 7 W 1027,3 8 0 0,0
16.11.2018 23:00:00 0,5 -0,2 -0,9 8,5 12,8 6 3 9 5 N 1027,7 6 0 0,0
16.11.2018 22:00:00 1,5 0,2 -0,3 8,7 12,7 4 2 6 3 NNW 1027,7 8 0 0,0
16.11.2018 21:00:00 2,7 1,2 -0,2 8,9 12,8 2 1 10 5 SSE 1027,5 9 0 0,0
16.11.2018 20:00:00 3,0 0,9 1,2 9,1 12,8 7 4 11 6 N 1027,3 10 0 0,0
16.11.2018 19:00:00 3,5 1,5 1,8 9,2 12,8 8 4 16 9 NNW 1027,2 9 0 0,0
16.11.2018 18:00:00 4,6 2,6 3,5 9,2 12,8 9 5 14 8 NW 1027,1 8 0 0,0
16.11.2018 17:00:00 5,4 3,2 4,3 9,2 12,8 8 5 15 8 WNW 1026,9 9 22 0,0
16.11.2018 16:00:00 7,1 3,9 8,6 9,1 12,8 9 5 13 7 WNW 1027,0 12 60 0,0
16.11.2018 15:00:00 7,8 4,0 7,7 9,0 12,8 7 4 17 9 NNW 1027,3 12 55 0,0
16.11.2018 14:00:00 6,8 3,4 7,9 8,9 12,8 11 6 18 10 N 1027,8 16 1 0,0
16.11.2018 13:00:00 7,0 4,0 7,9 8,8 12,9 10 5 16 9 N 1028,1 16 0 0,0
16.11.2018 12:00:00 6,4 4,2 7,2 8,7 12,8 8 4 13 7 N 1028,5 12 0 0,0
16.11.2018 11:00:00 6,2 4,2 5,8 8,7 12,9 6 3 13 7 NW 1028,7 20 0 0,0
16.11.2018 10:00:00 5,4 4,0 5,0 8,8 12,9 5 3 8 4 N 1028,7 18 0 0,0
16.11.2018 09:00:00 5,0 3,7 4,7 8,8 12,9 3 2 11 6 NE 1028,7 14 0 0,0
16.11.2018 08:00:00 4,9 4,0 4,7 8,8 12,9 6 3 10 5 NNW 1028,2 13 0 0,0
16.11.2018 07:00:00 4,9 4,5 4,9 8,8 12,9 6 3 11 6 NNW 1027,8 4,6 0 0,0
16.11.2018 06:00:00 4,9 4,5 4,8 8,9 12,9 8 5 11 6 NNW 1027,6 5 0 0,0
16.11.2018 05:00:00 4,9 4,5 4,8 8,9 12,9 6 4 11 6 NNW 1027,9 6 0 0,0
16.11.2018 04:00:00 5,0 4,6 4,9 9,0 12,9 8 4 10 6 NW 1027,7 7 0 0,0
16.11.2018 03:00:00 5,1 4,7 5,1 9,0 12,9 5 3 11 6 NNW 1028,0 7 0 0,0
16.11.2018 02:00:00 5,2 4,9 5,2 9,0 12,9 8 5 11 6 NNW 1027,9 8 0 0,0
16.11.2018 01:00:00 5,3 5,0 5,2 9,1 12,9 5 3 10 5 N 1028,1 2,9 0 0,0
16.11.2018 00:00:00 5,1 4,8 5,0 9,1 12,9 8 4 10 6 N 1028,1 1,9 0 0,0
15.11.2018 23:00:00 5,0 4,7 4,9 9,2 12,9 6 3 12 7 N 1027,7 2,1 0 0,0
15.11.2018 22:00:00 4,9 4,6 4,9 9,2 12,9 9 5 12 6 N 1027,9 2,2 0 0,0
15.11.2018 21:00:00 4,9 4,6 4,8 9,3 12,9 7 4 12 7 NNE 1027,8 2,5 0 0,0
15.11.2018 20:00:00 4,8 4,5 4,8 9,3 12,9 8 5 16 9 NE 1027,9 2,6 0 0,0
15.11.2018 19:00:00 4,9 4,6 4,8 9,4 12,9 11 6 16 8 NE 1027,8 2,5 0 0,0
15.11.2018 18:00:00 4,9 4,6 4,9 9,4 13,0 11 6 15 8 NNE 1027,4 1,6 0 0,0
15.11.2018 17:00:00 5,2 4,8 5,2 9,4 13,0 10 6 16 9 NE 1027,3 1,4 0 0,0
15.11.2018 16:00:00 5,8 5,2 5,8 9,4 13,0 3 2 16 9 N 1027,6 4,9 0 0,0
15.11.2018 15:00:00 5,8 5,2 6,0 9,4 13,0 12 7 19 10 NNE 1027,5 9 0 0,0
15.11.2018 14:00:00 6,1 5,4 6,5 9,3 13,0 10 6 14 8 NNE 1027,4 9 0 0,0
15.11.2018 13:00:00 6,2 5,8 6,6 9,3 13,0 3 2 8 4 ESE 1027,6 7 0 0,0
15.11.2018 12:00:00 6,2 5,6 6,5 9,3 13,0 4 2 10 5 SE 1027,8 12 0 0,0
15.11.2018 11:00:00 6,2 5,6 6,3 9,3 13,0 5 3 11 6 S 1028,2 11 0 0,0
15.11.2018 10:00:00 6,0 5,6 5,9 9,3 13,0 4 2 10 5 SSE 1028,1 11 0 0,0
15.11.2018 09:00:00 5,7 5,3 5,6 9,3 13,0 6 4 12 7 SSE 1028,0 11 0 0,0
15.11.2018 08:00:00 5,5 5,1 5,4 9,4 13,0 3 1 6 3 S 1028,1 8 0 0,0
15.11.2018 07:00:00 5,5 5,2 5,5 9,4 13,0 4 2 8 4 E 1027,8 5 0 0,0
15.11.2018 06:00:00 5,5 5,2 5,4 9,5 13,0 5 3 11 6 E 1027,9 2,3 0 0,0
15.11.2018 05:00:00 5,4 5,1 5,4 9,5 13,0 6 4 14 8 E 1028,0 2,4 0 0,0
15.11.2018 04:00:00 5,5 5,2 5,3 9,6 13,0 5 3 11 6 E 1028,2 2,0 0 0,0
15.11.2018 03:00:00 5,2 4,9 4,9 9,6 13,0 6 3 10 6 NE 1028,3 2,4 0 0,0
15.11.2018 02:00:00 4,8 4,5 4,9 9,7 13,0 5 3 10 6 SE 1028,3 0,8 0 0,0
15.11.2018 01:00:00 5,1 4,8 4,9 9,8 13,0 7 4 11 6 SSW 1028,1 0,5 0 0,0
15.11.2018 00:00:00 4,8 4,5 4,8 9,8 13,1 0 0 10 5 N 1028,3 0,4 0 0,0
14.11.2018 23:00:00 4,8 4,5 5,0 9,9 13,0 6 3 12 7 SSW 1028,5 0,3 0 0,0
14.11.2018 22:00:00 5,7 5,4 5,8 9,9 13,0 4 2 12 6 SSE 1028,5 0,3 0 0,0
14.11.2018 21:00:00 6,0 5,7 6,1 9,9 13,1 6 3 11 6 SW 1028,8 0,3 0 0,0
14.11.2018 20:00:00 6,3 6,0 6,3 9,9 13,1 5 3 10 6 SW 1028,9 0,2 0 0,0
14.11.2018 19:00:00 6,5 6,2 6,5 9,9 13,0 2 1 8 4 SE 1028,9 0,2 0 0,0
14.11.2018 18:00:00 6,6 6,3 6,7 10,0 13,1 4 2 11 6 N 1028,8 0,3 0 0,0
14.11.2018 17:00:00 6,6 6,3 6,8 9,9 13,0 4 2 8 5 SW 1029,0 0,9 0 0,0
14.11.2018 16:00:00 6,6 6,3 7,0 9,8 13,1 4 2 7 4 SSW 1029,1 1,5 0 0,0
14.11.2018 15:00:00 6,2 5,9 6,8 9,7 13,1 5 3 11 6 S 1028,9 2,6 0 0,0
14.11.2018 14:00:00 6,1 5,8 7,0 9,6 13,1 4 2 10 5 S 1029,2 1,2 0 0,0
14.11.2018 13:00:00 5,9 5,6 7,0 9,5 13,1 6 3 10 6 E 1029,5 0,6 0 0,0
14.11.2018 12:00:00 5,7 5,4 7,0 9,4 13,1 6 4 13 7 S 1029,7 0,3 0 0,0
14.11.2018 11:00:00 5,8 5,5 6,6 9,4 13,1 6 4 11 6 S 1030,2 0,4 0 0,0
14.11.2018 10:00:00 5,8 5,5 6,1 9,4 13,1 2 1 9 5 ESE 1030,3 0,3 0 0,0
14.11.2018 09:00:00 5,6 5,3 5,1 9,4 13,1 5 3 9 5 SSW 1030,6 0,9 7 0,0
14.11.2018 08:00:00 4,7 4,4 4,0 9,5 13,1 3 2 5 3 N 1030,9 0,5 0 0,0
14.11.2018 07:00:00 4,3 4,0 3,8 9,5 13,1 5 3 9 5 NE 1031,0 0,1 0 0,0
14.11.2018 06:00:00 4,6 4,3 4,5 9,6 13,1 4 2 8 4 WNW 1031,3 0,1 0 0,0
14.11.2018 05:00:00 4,9 4,6 4,8 9,7 13,1 5 3 7 4 WNW 1031,3 0,2 0 0,0
14.11.2018 04:00:00 4,6 4,3 3,4 9,9 13,1 3 2 5 3 NNW 1031,8 0,1 0 0,0
14.11.2018 03:00:00 3,3 3,0 0,3 10,1 13,1 5 3 8 5 NW 1032,0 0,2 0 0,0
14.11.2018 02:00:00 1,7 1,3 -0,2 10,3 13,1 7 4 8 5 ESE 1032,2 0,3 0 0,0
14.11.2018 01:00:00 2,9 2,5 0,4 10,6 13,1 3 1 7 4 WSW 1032,2 0,4 0 0,0
14.11.2018 00:00:00 3,1 2,7 0,9 10,8 13,0 0 0 7 4 N 1032,5 0,1 0 0,0
13.11.2018 23:00:00 4,1 3,7 1,3 11,0 13,1 4 2 7 4 SW 1032,4 2,5 0 0,0
13.11.2018 22:00:00 4,7 4,1 2,4 11,3 13,1 5 3 9 5 S 1032,5 10 0 0,0
13.11.2018 21:00:00 5,4 4,7 3,2 11,5 13,1 5 3 13 7 SW 1032,2 24 0 0,0
13.11.2018 20:00:00 6,1 4,9 3,7 11,6 13,0 5 3 10 5 S 1032,1 19 0 0,0
13.11.2018 19:00:00 8,0 7,1 5,4 11,8 13,1 6 4 11 6 WSW 1031,6 20 0 0,0
13.11.2018 18:00:00 9,1 7,4 6,4 11,9 13,1 4 2 8 5 WSW 1031,3 41 0 0,0
13.11.2018 17:00:00 11,2 8,6 8,8 11,8 13,0 3 1 14 8 WSW 1030,6 60 11 0,0
13.11.2018 16:00:00 12,1 9,1 11,6 11,7 13,0 11 6 21 11 SSW 1029,9 60 23 0,0
13.11.2018 15:00:00 14,1 10,3 13,8 11,6 13,0 11 6 21 12 S 1029,4 57 46 0,0
13.11.2018 14:00:00 14,5 11,1 13,5 11,5 13,1 11 6 18 10 SSW 1029,2 58 10 0,0
13.11.2018 13:00:00 12,8 10,9 12,2 11,5 13,1 11 6 23 13 WSW 1029,2 58 0 0,0
13.11.2018 12:00:00 12,0 10,7 11,3 11,4 13,1 15 8 27 14 SSW 1029,0 59 0 0,0
13.11.2018 11:00:00 11,5 10,2 11,3 11,4 13,0 13 7 22 12 SSW 1029,0 43 0 0,0
13.11.2018 10:00:00 11,3 10,2 10,6 11,5 13,1 11 6 27 15 S 1027,7 60 0 0,0
13.11.2018 09:00:00 11,3 10,0 10,2 11,5 13,0 16 9 32 17 S 1027,1 56 0 0,4
13.11.2018 08:00:00 10,7 9,9 10,1 11,5 13,1 10 5 14 8 S 1026,6 13 0 1,6
13.11.2018 07:00:00 11,3 9,9 10,4 11,5 13,1 5 3 14 8 SW 1025,8 6 0 1,2
13.11.2018 06:00:00 11,9 9,8 10,7 11,5 13,1 8 4 15 8 W 1024,3 60 0 0,0
13.11.2018 05:00:00 11,9 10,8 11,2 11,5 13,0 5 3 11 6 NNW 1023,7 58 0 0,0
13.11.2018 04:00:00 12,1 11,5 11,5 11,5 13,1 3 2 10 5 WSW 1023,0 11 0 0,8
13.11.2018 03:00:00 12,8 11,9 11,9 11,5 13,0 3 2 18 10 NNE 1022,3 17 0 0,4
13.11.2018 02:00:00 13,6 11,6 12,5 11,5 13,0 14 8 24 13 N 1021,6 6 0 0,4
13.11.2018 01:00:00 14,3 11,4 12,0 11,5 13,1 8 5 19 10 ENE 1020,9 43 0 0,0
13.11.2018 00:00:00 12,7 10,4 11,8 11,5 13,1 9 5 28 15 SW 1020,2 44 0 0,0
12.11.2018 23:00:00 13,8 10,6 11,9 11,5 13,0 3 1 14 7 ESE 1019,9 48 0 0,0
12.11.2018 22:00:00 12,4 9,8 10,1 11,6 13,0 3 2 9 5 NW 1019,8 49 0 0,0
12.11.2018 21:00:00 11,8 8,6 8,8 11,7 13,0 4 2 15 8 W 1019,7 47 0 0,0
12.11.2018 20:00:00 11,8 9,0 10,2 11,8 13,0 3 2 6 3 NNW 1019,3 42 0 0,0
12.11.2018 19:00:00 13,8 9,0 10,7 11,8 13,0 3 1 9 5 ESE 1018,7 59 0 0,0
12.11.2018 18:00:00 15,0 9,8 11,5 11,8 13,1 4 2 13 7 E 1018,1 60 0 0,0
12.11.2018 17:00:00 16,3 9,9 13,1 11,6 13,1 4 2 14 8 WSW 1017,4 60 14 0,0
12.11.2018 16:00:00 18,4 10,7 17,5 11,4 13,1 9 5 31 17 SW 1016,8 39 49 0,0
12.11.2018 15:00:00 17,7 10,8 17,5 11,2 13,1 18 10 28 15 S 1016,5 43 4 0,0
12.11.2018 14:00:00 17,5 9,9 17,7 11,0 13,1 16 9 26 14 S 1016,6 51 1 0,0
12.11.2018 13:00:00 16,8 9,9 17,2 10,7 13,1 4 2 22 12 SW 1016,7 53 1 0,0
12.11.2018 12:00:00 16,3 10,2 17,2 10,6 13,0 11 6 23 13 S 1016,6 36 26 0,0
12.11.2018 11:00:00 16,4 10,0 16,5 10,5 13,1 4 2 11 6 S 1016,6 42 60 0,0
12.11.2018 10:00:00 13,6 9,4 15,4 10,5 13,1 8 4 13 7 SSW 1016,5 28 60 0,0
12.11.2018 09:00:00 11,7 9,1 9,7 10,6 13,1 6 4 16 9 SSE 1016,2 21 58 0,0
12.11.2018 08:00:00 8,3 7,1 7,4 10,7 13,0 8 5 16 9 SSE 1015,9 10 1 0,0
12.11.2018 07:00:00 8,8 7,9 7,6 10,8 13,0 5 3 13 7 WSW 1015,1 14 0 0,0
12.11.2018 06:00:00 9,4 8,5 7,0 10,9 13,1 6 4 18 10 SSW 1014,8 9 0 0,0
12.11.2018 05:00:00 9,8 8,4 8,0 11,0 13,0 10 5 19 11 SSE 1014,8 16 0 0,0
12.11.2018 04:00:00 10,6 9,2 8,5 11,1 13,0 13 7 19 10 SSE 1014,9 19 0 0,0
12.11.2018 03:00:00 10,7 9,5 9,0 11,2 13,0 11 6 19 10 S 1015,4 29 0 0,0
12.11.2018 02:00:00 10,1 9,2 8,0 11,3 13,1 5 3 9 5 SSE 1015,5 22 0 0,0
12.11.2018 01:00:00 10,2 9,3 7,6 11,4 13,1 4 2 12 6 ENE 1015,7 20 0 0,0
12.11.2018 00:00:00 9,8 8,6 8,0 11,5 13,0 7 4 14 8 SSE 1015,8 20 0 0,0
11.11.2018 23:00:00 11,7 9,4 7,7 11,6 13,0 10 5 19 11 S 1015,5 47 0 0,0
11.11.2018 22:00:00 11,3 9,9 9,5 11,8 13,1 2 1 10 5 N 1015,3 22 0 0,0
11.11.2018 21:00:00 10,7 9,8 7,7 11,9 13,1 7 4 11 6 W 1015,0 25 0 0,0
11.11.2018 20:00:00 10,7 9,3 7,7 12,0 13,1 5 3 11 6 SSE 1014,3 26 0 0,0

tt = Température de l'air
td = dewpoint
tt 5cm = Température de l'air 5cm
tt -20cm = Température de l'air -20cm
tt -100cm = Température de l'air -100cm
ff = Vitesse du vent
fx = gusts
dd = Direction du vent
ppp = reduced air pressure
vv = visibility
sd = Ensoleillement
rr = Quantités de précipitations

stations d'obs. à proximité